Location: Farmingdale
(40.7326°N, 73.4454°W)
Time: 05:33:34
(UTC+00:00)

Daily predictions for brighter satellites

Satellite Brightness Start Highest point End
(mag) Time Altitude Azimuth Time Altitude Azimuth Time Altitude Azimuth
SPOT 3 Rocket 4.4 00:54:26 10° SE 00:59:04 35° ENE 01:03:45 10° N
IRS-1A Rocket 4.4 00:54:22 10° SSE 01:00:13 75° ENE 01:06:02 10° N
SJ-6B 3.5 00:57:54 10° S 01:01:57 61° W 01:06:00 10° NNW
Cosmos 1470 3.7 00:58:57 10° NNE 01:02:33 32° ENE 01:06:05 10° SE
USA 186 3.6 01:00:45 10° SSW 01:03:07 27° W 01:05:40 10° NW
SL-16 R/B 2.5 01:02:46 10° S 01:08:10 47° ESE 01:13:34 10° NE
Cosmos 2360 Rocket 3.4 01:05:44 10° SSE 01:09:49 21° E 01:13:54 10° NE
Cosmos 2322 Rocket 2.7 01:05:44 10° S 01:10:57 38° ESE 01:16:10 10° NE
BREEZE-M DEB (TANK) 2.2 01:10:51 10° SW 01:13:05 43° SE 01:16:01 10° ENE
Cosmos 1315 Rocket 3.6 01:10:11 10° N 01:14:03 37° ENE 01:17:48 10° SE
SL-24 DEB 4.4 01:09:58 10° S 01:14:41 85° W 01:19:28 10° N
Cosmos 676 Rocket 4.3 01:11:25 10° NNW 01:16:41 58° ENE 01:21:53 10° SSE
Ariane Rocket 3.1 01:12:20 10° SSE 01:17:26 83° WSW 01:22:34 10° NNW
Cosmos 1954 Rocket 4.2 01:12:15 10° NNW 01:17:33 61° ENE 01:22:44 10° SSE
Cosmos 2227 4.3 01:12:09 10° NNW 01:17:46 67° ENE 01:23:15 10° SSE
ATLAS 2A CENTAUR R/B 4.4 01:05:48 10° SW 01:17:54 19° S 01:23:10 11° SE
OBJECT-B 2.9 01:16:43 10° SSW 01:19:26 25° W 01:22:10 10° NW
Meteor 1-21 4.3 01:14:12 10° S 01:19:46 62° E 01:25:20 10° NNE
Aureole 2 Rocket 4.3 01:20:20 10° WNW 01:21:52 15° WSW 01:23:23 10° SW
Okean 1 Rocket 3.2 01:18:26 10° N 01:22:44 56° E 01:27:01 10° SSE
Cosmos 1934 Rocket 4.2 01:17:16 10° N 01:23:22 77° W 01:29:31 10° S
USA 238 DEB 4.0 01:17:10 10° SW 01:23:39 71° NW 01:30:29 10° NNE
USA 238 4.0 01:17:16 10° SW 01:23:45 71° NW 01:30:35 10° NNE
Resurs 1-3 3.9 01:19:26 10° S 01:23:47 67° WSW 01:28:10 10° NNW
USA 215 4.5 01:20:13 10° E 01:24:26 18° ESE 01:28:36 10° SSE
Cosmos 1726 2.2 01:22:55 10° N 01:26:30 58° E 01:29:47 12° SSE
Cosmos 1980 Rocket 4.2 01:24:17 10° WSW 01:29:20 33° WNW 01:34:23 10° N
Cosmos 220 Rocket 4.3 01:25:12 10° SSW 01:29:30 72° WNW 01:33:47 10° NNE
Cosmos 1378 Rocket 3.7 01:25:32 10° SSW 01:29:51 76° W 01:34:14 10° N
BREEZE-M DEB (TANK) 2.1 01:28:16 10° SSW 01:30:20 27° SE 01:32:50 10° ENE
USA 81 4.5 01:25:30 10° N 01:30:34 46° E 01:35:02 13° SSE
Okean 2 3.4 01:28:28 10° S 01:32:33 81° W 01:36:40 10° N
Cosmos 1758 3.7 01:28:47 10° N 01:32:37 44° E 01:35:36 15° SSE
Cosmos 1140 Rocket 4.3 01:27:38 10° NNW 01:32:41 49° WSW 01:37:41 10° S
CENTAUR R/B 3.1 01:29:02 10° SW 01:34:46 62° NW 01:41:38 10° NNE
Lacrosse 5 rocket 2.2 01:35:42 10° S 01:38:42 23° SE 01:41:38 10° ENE
Cosmos 1707 2.7 01:39:33 10° S 01:43:24 89° E 01:47:19 10° N
Cosmos 292 Rocket 3.8 01:38:53 10° SSW 01:43:43 86° WNW 01:48:34 10° NNE
Meteor 2-10 4.4 01:40:49 10° NNW 01:45:47 60° W 01:50:51 10° S
Cosmos 1727 Rocket 4.0 01:40:55 10° S 01:47:10 70° E 01:53:26 10° NNE
Cosmos 1844 Rocket 3.9 01:43:46 10° N 01:48:45 30° ENE 01:52:38 15° ESE
NOSS 8 (A) 4.2 01:45:36 10° SSW 01:49:16 90° SW 01:52:17 10° NE
Meteor 2-20 Rocket 4.4 01:44:09 10° S 01:50:12 68° E 01:56:16 10° NNE
SPOT 5 3.9 01:50:49 18° SE 01:54:02 35° ENE 01:58:32 10° N
Cosmos 1605 Rocket 4.3 01:48:15 10° NNW 01:54:38 70° W 02:00:55 10° S
FALCON 9 DEB 3.0 01:55:23 10° SW 01:58:48 86° SE 02:02:13 10° NE
Cosmos 1953 3.0 01:56:31 10° N 02:00:23 40° ENE 02:02:13 25° SE
Resurs 01 Rocket 2.5 01:56:25 10° S 02:00:39 46° W 02:04:54 10° NNW
Cosmos 1452 Rocket 3.6 01:55:40 10° SSW 02:00:57 85° WNW 02:06:16 10° NNE
Cosmos 2263 Rocket 3.0 01:56:27 10° NW 02:01:52 46° WSW 02:06:51 12° S
Cosmos 1025 Rocket 3.8 02:00:33 23° SE 02:02:27 34° E 02:06:25 10° NNE
CARTOSAT-1 3.7 02:02:17 24° SE 02:04:43 58° ENE 02:08:59 10° N
Terra 2.9 02:02:47 19° ESE 02:05:10 30° ENE 02:09:18 10° N
USA 245 3.9 02:03:19 20° SSE 02:06:28 88° ENE 02:12:01 10° NNW
In-Cosmos 22 4.1 02:05:18 10° SSW 02:10:35 79° W 02:15:54 10° N
SPOT 1/Viking Rocket 3.6 02:06:53 18° S 02:10:47 76° WSW 02:15:57 10° NNW
Lacrosse 5 1.9 02:05:47 10° NW 02:10:50 73° SW 02:13:41 26° SSE
Cosmos 1626 2.7 02:10:37 31° SE 02:11:36 37° E 02:15:03 10° NNE
Cosmos 1975 Rocket 3.0 02:09:40 16° S 02:13:03 89° E 02:17:27 10° N
Cosmos 1850 Rocket 4.0 02:08:33 10° NNW 02:13:51 72° ENE 02:16:49 26° SSE
Cosmos 2333 Rocket 2.9 02:14:46 25° SSE 02:17:12 35° ESE 02:22:21 10° NE
Cosmos 1461 3.7 02:14:17 10° NNW 02:18:15 39° NE 02:19:59 26° ESE
Geosat 4.0 02:15:36 26° SE 02:18:25 72° ENE 02:23:27 10° NNW
Spot 2 Rocket 3.5 02:18:25 24° SSE 02:21:31 86° WSW 02:26:37 10° NNW
KORONAS-FOTON 3.9 02:21:34 22° SSW 02:23:56 74° W 02:27:44 10° N
Cosmos 1459 Rocket 3.9 02:18:33 10° N 02:24:37 72° E 02:28:08 26° SSE
Cosmos 1331 Rocket 3.9 02:22:28 17° S 02:26:29 73° ESE 02:31:45 10° NNE
ERS-1 Rocket 3.0 02:24:36 29° SSE 02:27:10 72° ENE 02:32:13 10° N
Cosmos 1000 Rocket 4.4 02:24:18 17° S 02:29:10 87° E 02:35:20 10° N
Cosmos 2219 Rocket 2.7 02:29:35 30° SE 02:31:31 39° ESE 02:36:44 10° NE
ATLAS CENTAUR R/B 3.2 02:29:00 10° N 02:32:37 25° NE 02:34:48 17° E
Cosmos 1844 4.0 02:27:53 10° NNW 02:33:22 55° ENE 02:35:57 30° SE
ARIANE 5 R/B 2.9 02:36:13 29° S 02:38:19 63° WSW 02:42:47 10° NNW
Meteor 1-24 Rocket 4.4 02:37:25 29° ESE 02:38:44 33° E 02:43:32 10° NNE
Cosmos 2061 Rocket 4.2 02:35:11 10° N 02:41:35 63° E 02:44:36 32° SSE
Meteor 2-11 Rocket 4.4 02:36:20 10° N 02:42:29 88° E 02:45:42 30° S
Cosmos 1674 3.8 02:41:23 17° SW 02:43:47 39° WNW 02:47:17 10° N
Aureole 1 Rocket 4.1 02:37:54 10° NNW 02:43:56 85° ENE 02:47:53 30° SSE
CZ-4B DEB 4.4 02:44:40 56° ENE 02:44:40 56° ENE 02:47:47 10° N
Cosmos 1302 Rocket 4.2 02:43:00 36° SSE 02:44:46 52° ESE 02:49:52 10° NNE
ATLAS 3B R/B 2.5 02:39:16 13° SSW 02:45:03 65° ESE 02:51:40 10° NE
Cosmos 1741 Rocket 4.3 02:40:53 10° NNW 02:46:04 62° WSW 02:48:30 31° S
Cosmos 2237 Rocket 4.0 02:47:42 14° E 02:47:42 14° E 02:50:01 10° ENE
Celestis-02/Orion 38 4.5 02:49:22 39° SSE 02:51:20 88° ENE 02:56:30 10° NNW
Cosmos 2123 Rocket 3.9 02:48:01 28° S 02:51:31 81° E 02:57:51 10° N
SL-16 R/B 4.3 02:47:47 10° WSW 02:52:28 26° NW 02:57:12 10° N
Cosmos 2360 Rocket 2.9 02:47:50 10° SW 02:53:21 54° WNW 02:58:53 10° NNE
Cosmos 2322 Rocket 4.0 02:49:59 10° WSW 02:55:01 32° WNW 03:00:05 10° N
Cosmos 1300 3.0 02:51:29 10° N 02:55:11 48° E 02:55:23 48° E
H-2A R/B 3.3 02:53:43 10° NNE 02:57:49 87° ESE 02:58:45 53° S
Cosmos 1544 Rocket 3.7 02:54:08 10° NNW 02:58:34 68° W 02:59:55 43° SSW
SL-24 R/B 4.3 02:57:53 10° N 03:02:43 72° E 03:03:58 49° SSE
Cosmos 1455 Rocket 4.3 02:59:22 10° NNW 03:03:26 35° W 03:05:24 23° SW
Cosmos 2233 Rocket 4.2 02:58:39 10° N 03:04:41 55° E 03:06:48 38° SE
Cosmos 1346 Rocket 3.9 03:05:41 30° ENE 03:05:41 30° ENE 03:08:46 10° NNE
USA 215 3.1 03:01:31 10° NE 03:08:04 76° SE 03:14:36 10° SW
COSMOS 2428 2.7 03:06:54 41° S 03:08:49 65° ESE 03:14:30 10° NNE
Cosmos 1340 3.2 03:10:39 46° WSW 03:11:22 55° WNW 03:15:05 10° N
Cosmos 2322 3.7 03:08:15 26° SSW 03:11:34 82° WNW 03:17:15 10° NNE
BREEZE-M DEB (TANK) 3.9 03:09:57 10° WNW 03:11:14 24° WNW 03:11:14 24° WNW
Cosmos 405 3.2 03:13:52 10° NNW 03:17:02 65° WNW 03:17:02 65° WNW
Lacrosse 5 rocket 2.6 03:14:14 10° WSW 03:17:38 35° NW 03:20:58 10° NNE
Cosmos 2278 Rocket 3.5 03:16:43 10° N 03:21:38 29° NE 03:23:55 22° E
Cosmos 2016 Rocket 4.4 03:21:25 10° NNW 03:27:20 53° W 03:29:58 32° SSW
Cosmos 1536 Rocket 4.3 03:26:46 36° SW 03:28:06 49° W 03:32:26 10° N
SPOT 5 4.5 03:30:03 21° SW 03:32:05 28° W 03:36:22 10° NW
Cosmos 968 Rocket 3.5 03:27:31 10° NNW 03:32:38 68° ENE 03:33:30 57° ESE
Cosmos 1844 Rocket 3.5 03:27:28 10° NW 03:32:42 39° WSW 03:34:17 32° SW
Cosmos 1992 Rocket 4.0 03:32:57 57° SE 03:33:24 59° ESE 03:38:32 10° NNE
Meteor 2-5 Rocket 4.0 03:32:04 35° SW 03:34:20 61° WNW 03:39:52 10° N
Cosmos 1900 4.4 03:30:14 10° NW 03:35:04 61° WSW 03:35:33 57° SW
USA 267 4.2 03:34:23 12° E 03:40:04 43° NNE 03:46:10 10° NW
GEOS 3 Rocket 3.9 03:39:18 45° ESE 03:40:52 66° NE 03:46:11 10° NNW
Terra 3.2 03:41:40 25° WSW 03:42:52 28° W 03:46:58 10° NW
Cosmos 2228 3.0 03:47:28 10° N 03:51:51 82° W 03:51:51 82° W
Lacrosse 5 4.3 03:52:20 10° WSW 03:52:53 10° WSW 03:52:53 10° WSW
Cosmos 1980 3.7 03:56:11 59° SE 03:56:40 62° ESE 04:02:17 10° NNE
Cosmos 2333 Rocket 3.6 03:56:42 12° WSW 04:01:25 35° WNW 04:06:38 10° N
BREEZE-M DEB (TANK) 3.2 03:52:17 10° WSW 04:03:32 80° NNW 04:06:51 10° NE
DNEPR-1 R/B 4.2 03:59:56 10° NW 04:03:30 46° W 04:03:30 46° W
Iridium 2 4.4 04:07:27 52° NNW 04:07:27 52° NNW 04:10:28 10° N
ATLAS CENTAUR R/B 2.5 04:07:27 10° NW 04:10:56 38° W 04:10:56 38° W
SL-8 R/B 4.4 04:10:12 10° WNW 04:13:41 42° W 04:13:41 42° W
Cosmos 2219 Rocket 3.7 04:11:14 13° WSW 04:15:30 31° WNW 04:20:31 10° N
Cosmos 2058 Rocket 3.2 04:13:14 10° N 04:17:21 67° NE 04:17:21 67° NE
Cosmos 389 Rocket 4.2 04:16:36 10° NNW 04:18:37 28° NW 04:18:37 28° NW
Cosmos 1503 Rocket 3.9 04:14:23 10° NNW 04:19:47 78° ENE 04:20:18 70° SE
Meteor 2-10 Rocket 4.2 04:17:11 10° NNW 04:21:55 40° W 04:22:19 39° WSW
Cosmos 2034 Rocket 4.2 04:16:18 10° N 04:22:24 57° E 04:23:38 48° ESE
Cosmos 1455 3.0 04:19:12 10° NNW 04:22:07 49° NNW 04:22:07 49° NNW
SL-16 R/B 3.1 04:25:54 33° E 04:25:54 33° E 04:30:43 10° NE
Cosmos 1726 Rocket 4.1 04:22:51 10° NNW 04:26:54 51° WNW 04:26:54 51° WNW
ATLAS CENTAUR R/B 2.7 04:26:30 65° S 04:27:16 75° SE 04:38:20 10° NE
Meteor 1-4 Rocket 4.5 04:25:12 10° NNE 04:27:14 23° NE 04:27:14 23° NE
Spot 4 4.3 04:28:51 48° W 04:28:51 48° W 04:33:27 10° NNW
GP-B 4.4 04:25:46 10° NNE 04:29:21 30° ENE 04:29:21 30° ENE
Cosmos 2237 Rocket 2.2 04:29:30 60° SW 04:30:29 75° WNW 04:36:08 10° NNE
NOSS 3-1 (C) 4.3 04:31:32 28° E 04:31:32 28° E 04:35:41 10° NE
Cosmos 1867 3.5 04:29:17 10° NW 04:34:43 66° WSW 04:34:48 65° WSW
ATLAS 3B R/B 4.3 04:30:37 10° W 04:36:13 29° NW 04:42:00 10° NNE
Thor Agena Rocket 3.7 04:32:58 10° NNE 04:38:09 58° ESE 04:38:12 57° ESE
ALOS 2 3.0 04:41:22 57° WNW 04:41:22 57° WNW 04:45:13 10° NNW
Tsikada Rocket 4.0 04:43:11 57° SE 04:44:11 65° E 04:50:18 10° NNE
SJ 16-02 3.0 04:43:35 10° N 04:47:13 25° ENE 04:47:52 24° ENE
Meteor 1-21 Rocket 4.3 04:46:49 57° WSW 04:47:38 64° WNW 04:53:18 10° N
SL-4 R/B 2.9 04:52:00 43° N 04:52:00 43° N 04:54:53 10° NE
Meteor 1-11 4.2 04:59:16 63° SE 04:59:46 67° E 05:05:19 10° NNE
Cosmos 2297 4.4 04:58:28 10° NNW 05:03:54 46° ENE 05:05:43 35° ESE
Cosmos 2278 Rocket 2.8 05:00:32 10° NW 05:05:45 41° WSW 05:05:45 41° WSW
Cosmos 1777 Rocket 3.8 05:05:25 10° NNW 05:10:44 90° ENE 05:11:01 81° SSE
Cosmos 1626 Rocket 4.1 05:11:52 53° WNW 05:11:52 53° WNW 05:15:57 10° N
PSLV R/B 3.7 05:10:25 10° NNE 05:14:21 74° NNE 05:14:21 74° NNE
Cosmos 1174 4.5 05:15:05 73° S 05:15:32 80° ESE 05:20:34 10° NNE
Cosmos 1892 4.1 05:18:18 33° ENE 05:18:18 33° ENE 05:21:06 10° NNE
Cosmos 1602 Rocket 3.8 05:18:27 63° NW 05:18:27 63° NW 05:22:35 10° N
NOSS 2-3 (D) 4.3 05:21:22 42° ENE 05:21:22 42° ENE 05:24:48 10° NE
USA 267 3.2 05:21:42 55° S 05:22:52 64° SW 05:29:23 10° NW
Helios 1A 4.5 05:22:48 27° E 05:23:24 28° ENE 05:27:00 10° N
Cosmos 1758 Rocket 3.6 05:25:43 76° NNE 05:25:43 76° NNE 05:29:49 10° N
In-Cosmos 22 Rocket 4.4 05:30:08 53° SE 05:30:57 58° E 05:36:22 10° NNE
NOSS 2-3 (C) 3.6 05:37:47 69° NE 05:37:47 69° NE 05:41:54 10° NE
EO 1 Del DPAF 3.9 05:34:10 10° N 05:37:03 50° NNW 05:37:03 50° NNW
Aureole 3 3.8 05:34:38 10° NNW 05:37:46 60° NW 05:37:46 60° NW
SL-24 R/B 4.4 05:40:29 70° SW 05:40:50 73° W 05:46:33 10° NNW
Cosmos 1943 4.1 05:41:25 32° ESE 05:42:11 34° ESE 05:47:12 10° NE
Cosmos 1634 Rocket 4.0 05:38:11 10° NNW 05:44:28 72° W 05:45:48 55° SSW
Cosmos 2279 Rocket 4.0 05:39:42 10° N 05:45:59 74° E 05:47:46 48° SSE
Cosmos 1603 4.4 05:46:50 37° SE 05:47:43 40° ESE 05:52:58 10° NE
Cosmos 405 Rocket 3.7 05:48:53 39° ENE 05:48:53 39° ENE 05:51:45 10° NNE
Cosmos-2242 3.1 05:44:17 10° NNW 05:48:21 69° NW 05:48:21 69° NW
Cosmos 1943 Rocket 2.1 05:43:33 10° NNW 05:49:06 84° ENE 05:50:15 57° SSE
Cosmos 1825 3.1 05:52:57 42° ENE 05:52:57 42° ENE 05:56:05 10° NNE
YAOGAN 11 4.1 05:54:06 72° ESE 05:54:20 74° ENE 05:58:48 10° N
Resurs 1-4 Rocket 2.9 05:55:03 10° NNE 06:00:04 41° E 06:01:20 36° SE
Exosat Rocket 4.0 06:01:44 48° S 06:03:49 82° ESE 06:09:24 10° NNE
CZ-2D R/B 2.6 06:04:15 10° NNE 06:09:17 48° E 06:10:33 40° SE
SL-16 R/B 3.3 06:07:45 27° W 06:09:43 35° WNW 06:14:53 10° N
USA 229 DEB 3.5 06:08:35 46° SW 06:10:41 79° NW 06:17:29 10° NNE
USA 229 3.5 06:08:42 46° SW 06:10:48 80° NW 06:17:36 10° NNE
MOZ.5/SAFIR/RUBIN 5/SL-8 3.7 06:13:18 63° SSE 06:14:05 85° ENE 06:18:51 10° NNW
Cosmos 468 Rocket 3.9 06:16:01 60° SW 06:16:55 77° WNW 06:22:09 10° NNE
ADEOS II 3.6 06:12:52 10° NE 06:17:16 27° E 06:19:31 20° SE
Cosmos 2221 3.2 06:13:47 10° N 06:17:58 49° E 06:18:55 40° ESE
Nadezhda 4 Rocket 4.0 06:17:10 43° SSE 06:19:18 75° E 06:25:25 10° N
Cosmos 1408 3.7 06:20:25 36° NW 06:20:25 36° NW 06:23:18 10° N
X-37B 1.9 06:21:11 41° NNE 06:21:11 41° NNE 06:23:44 10° ENE
NOSS 3-1 (C) 4.1 06:18:54 27° W 06:21:15 41° NW 06:27:05 10° NNE
ARGOS Delta rocket 4.3 06:15:55 10° NNE 06:21:24 70° E 06:23:00 46° SSE
Cosmos 2098 Rocket 3.8 06:20:29 42° SSE 06:22:26 67° E 06:27:24 10° NNE
SJ 16-02 2.7 06:22:01 10° NW 06:24:50 26° WNW 06:24:50 26° WNW
Cosmos 2369 Rocket 2.1 06:23:06 10° NNW 06:28:52 90° WSW 06:31:22 36° SSE
SL-16 R/B 2.7 06:26:24 26° SSE 06:30:02 72° ENE 06:36:12 10° N
Cosmos 1869 4.4 06:26:30 10° NNW 06:29:42 33° WNW 06:29:42 33° WNW
NOSS 3-1 (A) 3.5 06:28:32 39° WSW 06:30:23 60° NW 06:36:29 10° NNE
SL-4 R/B 4.5 06:28:51 10° NW 06:31:25 17° NNW 06:33:53 10° NNE
Cosmos 1606 3.7 06:31:17 10° N 06:34:57 42° ENE 06:35:59 34° ESE
Cosmos 1656 Rocket 4.0 06:29:39 10° NNW 06:35:20 66° ENE 06:39:36 18° SE
Cosmos 2263 4.3 06:30:22 10° NNW 06:36:04 76° ENE 06:39:38 23° SSE
Cosmos 1763 Rocket 3.8 06:35:28 42° WSW 06:36:41 51° WNW 06:41:40 10° N
Cosmos 1437 Rocket 2.5 06:33:38 10° N 06:37:32 84° W 06:37:37 82° SW
Cosmos 1242 Rocket 3.2 06:36:42 10° N 06:40:13 51° E 06:40:52 44° ESE
Cosmos 2058 3.0 06:40:52 57° W 06:41:07 58° W 06:45:10 10° N
USA 290 3.8 06:42:13 26° ESE 06:42:14 26° ESE 06:45:00 10° NE
ATLAS 5 CENTAUR R/B 2.2 06:48:01 34° SE 06:48:34 35° ESE 06:52:24 10° NE
DELTA 2 R/B (1) 3.6 06:48:29 43° SW 06:50:02 60° SSE 06:55:30 10° E
Cosmos 1932 4.5 06:43:54 10° NNW 06:50:09 80° ENE 06:56:20 10° SE
Aureole 3 Rocket 3.3 06:49:54 10° N 06:53:45 69° E 06:56:17 28° SSE
Cosmos 1437 3.6 06:52:10 10° N 06:54:48 36° ENE 06:55:00 36° E
ADEOS Rocket 3.7 06:48:28 10° SSE 06:55:51 66° ENE 07:02:37 10° N
Cosmos 1092 Rocket 3.9 06:54:17 32° S 06:57:18 87° E 07:03:28 10° N
Helios 1A 4.5 06:59:24 22° W 06:59:24 22° W 07:02:15 10° NW
USA 307 3.2 06:58:46 44° SSE 06:59:30 50° SE 07:03:37 10° ENE
Cosmos 1633 2.3 07:03:06 67° SSW 07:03:32 85° WNW 07:07:03 10° N
Landsat 4 3.9 07:01:12 10° NNE 07:04:58 64° ESE 07:06:02 42° SSE
Helios 1B rocket 2.6 07:01:11 10° N 07:05:12 56° WNW 07:06:08 44° WSW
Meteor 2-3 Rocket 4.5 07:01:46 19° SSE 07:05:32 47° E 07:10:53 10° NNE
IRS-1D 3.8 07:04:26 10° NNE 07:09:33 62° ESE 07:12:21 26° S
Cosmos 1842 Rocket 4.0 07:05:33 10° NNW 07:09:40 43° W 07:10:28 38° WSW
USA 308 2.9 07:13:55 42° SSW 07:15:12 69° SE 07:19:26 10° NE
Cosmos 1428 Rocket 4.5 07:13:10 27° S 07:16:53 83° W 07:23:13 10° N
NOSS 2-2 (D) 2.8 07:17:58 51° SSW 07:18:44 88° SE 07:22:18 10° NE
Cosmos 841 Rocket 4.1 07:19:57 28° WSW 07:22:11 43° WNW 07:27:06 10° N
UNK 4.3 07:21:01 33° SW 07:22:11 38° W 07:26:31 10° NNW
Cosmos 1782 4.5 07:20:31 10° NNE 07:24:08 32° ENE 07:27:45 10° SE
Cosmos 540 Rocket 4.4 07:22:33 24° WSW 07:24:46 35° WNW 07:29:27 10° N
CZ-4C R/B 4.4 07:22:07 10° SE 07:25:21 37° ENE 07:28:34 10° N
Cosmos 921 Rocket 3.6 07:24:20 31° WSW 07:25:44 42° WNW 07:29:45 10° N
Cosmos 1943 4.2 07:23:13 21° WSW 07:26:10 34° WNW 07:31:17 10° N
Cosmos 1898 Rocket 4.4 07:21:46 10° NW 07:26:10 28° W 07:27:17 26° WSW
MINOTAUR 4 R/B 4.2 07:28:57 39° SW 07:29:48 50° W 07:33:15 10° NNW
Lacrosse 4 Rocket 2.3 07:25:58 10° NNW 07:29:56 48° ENE 07:33:51 10° SE
Cosmos 1937 Rocket 4.1 07:26:03 10° NW 07:30:54 37° WSW 07:33:00 26° SW
Cosmos 1943 Rocket 4.1 07:30:03 10° WNW 07:31:43 12° W 07:31:43 12° W
USA 305 2.9 07:32:36 29° WSW 07:34:40 76° NW 07:38:56 10° NE
Resurs 1-4 Rocket 3.5 07:35:20 10° N 07:39:39 26° WNW 07:42:25 17° WSW
Cosmos 1933 3.3 07:37:33 10° N 07:41:39 81° W 07:44:44 17° S
Cosmos 1271 Rocket 4.3 07:42:23 10° N 07:45:49 33° ENE 07:49:13 10° SE
Cosmos 2151 3.5 07:45:23 25° SW 07:47:20 41° WNW 07:51:20 10° N
IRIDIUM 104 4.3 07:42:20 10° N 07:47:35 84° W 07:52:28 12° S
Cosmos 2150 Rocket 4.3 07:42:56 10° NNW 07:48:08 70° ENE 07:53:22 10° SSE
Cosmos 1809 Rocket 4.4 07:43:32 17° S 07:48:28 82° W 07:54:42 10° N
CZ-2D R/B 3.6 07:45:07 10° NNW 07:48:58 22° WNW 07:51:52 14° WSW
Cosmos 2221 4.5 07:53:04 10° WNW 07:55:00 13° W 07:55:44 12° W
Meteor 1-29 4.5 07:53:07 10° NNW 07:55:50 22° WNW 07:57:08 18° WSW
Cosmos 1553 Rocket 4.0 07:49:43 10° N 07:56:02 78° W 08:02:12 10° S
IRIDIUM 114 4.3 07:51:31 10° N 07:56:43 69° W 08:01:36 12° S
USA 306 3.4 07:53:56 18° WSW 07:56:53 52° NW 08:01:03 10° NE
ADEOS II 2.9 07:52:12 10° N 07:57:01 37° WNW 08:00:27 17° SW
X-37B 2.1 07:54:39 10° WNW 07:57:40 37° N 08:00:39 10° ENE
ERBS 3.4 07:56:45 18° S 07:58:34 33° SE 08:01:31 10° ENE
S3M 4.1 07:54:16 10° N 08:00:27 78° E 08:06:40 10° S
CZ-2D R/B 4.4 07:57:13 10° NNE 08:01:15 44° E 08:05:09 10° S
CZ-2C R/B 4.0 07:56:59 10° NNE 08:01:23 31° E 08:05:38 10° SSE
Cosmos 1125 Rocket 3.7 07:59:04 10° NNW 08:04:21 79° ENE 08:09:37 10° SSE
IRIDIUM 103 4.5 08:00:45 10° NNW 08:05:51 56° W 08:10:45 11° SSW
SeaSat 1 2.6 08:01:24 10° NNE 08:06:17 63° WNW 08:10:13 16° SW
ARIANE 5 R/B 2.6 08:03:35 10° NNE 08:08:36 79° ESE 08:13:36 10° S
Cosmos 2369 Rocket 4.0 08:10:15 10° WNW 08:11:59 11° W 08:13:04 11° WSW
SL-08 R/B 3.5 08:07:42 10° SSE 08:12:18 72° ENE 08:17:01 10° N
Cosmos 1328 Rocket 3.6 08:09:39 10° N 08:14:02 87° E 08:18:24 10° S
SL-16 R/B 4.0 08:11:30 13° WSW 08:14:10 17° W 08:18:05 10° NW
Cosmos 1862 3.7 08:10:47 10° S 08:14:46 66° E 08:18:47 10° NNE
IDEFIX/ARIANE 42P 3.0 08:11:27 10° N 08:16:27 46° WNW 08:20:56 13° SW
USA 290 4.5 08:15:00 11° W 08:16:41 14° WNW 08:18:33 10° NNW
Lacrosse 5 rocket 4.2 08:16:53 10° N 08:19:03 15° NNE 08:21:15 10° ENE
Meteor 2-21 Rocket 4.5 08:14:10 10° SSW 08:20:15 72° W 08:26:27 10° N
USA 281 3.3 08:14:34 10° S 08:20:58 56° WSW 08:27:26 10° NNW
IRS-1C 4.3 08:16:43 10° N 08:21:59 63° WNW 08:27:14 10° SSW
CZ-4B R/B 3.6 08:18:01 10° NNE 08:23:19 80° WNW 08:28:30 10° SSW
CZ-4C R/B 2.5 08:19:42 10° SSW 08:24:15 55° ESE 08:29:39 10° NE
GPS 2-04 Rocket1 3.2 08:23:33 13° WSW 08:26:43 37° S 08:30:12 10° ESE
FALCON 9 DEB 3.1 08:25:57 10° NW 08:29:22 83° NE 08:32:44 10° SE
ATLAS 5 CENTAUR R/B 3.2 08:30:03 10° W 08:33:15 22° NW 08:36:45 10° N
DELTA 2 R/B (1) 3.6 08:30:48 10° W 08:36:21 81° S 08:41:56 10° E
USA 307 4.3 08:35:52 10° W 08:39:38 30° NNW 08:43:24 10° NE
Cosmos 1833 Rocket 3.5 08:35:36 10° S 08:41:01 51° ESE 08:46:29 10° NNE
Spot 4 Rocket 4.1 08:35:59 10° NNE 08:41:09 86° WNW 08:46:17 10° SSW
ADEOS Rocket 4.5 08:35:54 10° SW 08:41:37 24° W 08:47:04 10° NW
Cosmos 2266 Rocket 4.1 08:35:42 10° SSW 08:41:43 58° W 08:47:43 10° N
Cosmos 1515 Rocket 3.6 08:37:20 10° N 08:41:47 84° W 08:46:12 10° S
Cosmos 883 Rocket 4.5 08:35:55 10° N 08:42:04 79° W 08:48:10 10° S
Cosmos 1408 Rocket 3.8 08:40:15 10° SSW 08:44:36 56° W 08:49:00 10° N
Cosmos 1151 Rocket 3.9 08:42:31 10° NNW 08:46:14 29° W 08:49:55 10° SSW
